Home   Weather   Brignogan-Plages   Past weeks
Flag for France

Past Weather in Brignogan-Plages, Finistère, France — June 2019

Currently: 46 °F. Overcast. (Weather station: Brest Airport, France). See more current weather

June 2019 Weather in Brignogan-Plages — Graph

°F

High & Low Weather Summary for June 2019

 TemperatureHumidityPressure
High93 °F (Jun 27, 5:00 pm)100% (Jun 1, 6:30 am)30.21 "Hg (Jun 1, 6:30 am)
Low43 °F (Jun 6, 6:00 am)41% (Jun 22, 1:30 pm)29.42 "Hg (Jun 7, 8:00 am)
Average59 °F81%29.96 "Hg
* Reported Jun 1 12:00 am — Jun 30 11:30 pm, Brignogan-Plages. Weather by CustomWeather, © 2022

Note: Actual official high and low records may vary slightly from our data, if they occured in-between our weather recording intervals... More about our weather records

Brignogan-Plages Weather History for June 1, 2019

Scroll right to see more
 ConditionsComfort  
Time TempWeatherWind HumidityBarometerVisibility
12:00 am
Sat, Jun 1
55 °FClear.3 mph82%30.21 "Hg10 mi
12:30 am55 °FClear.5 mph82%30.18 "Hg10 mi
1:00 am55 °FClear.6 mph88%30.18 "Hg10 mi
1:30 am55 °FClear.3 mph82%30.18 "Hg10 mi
2:00 am55 °FClear.No wind82%30.18 "Hg10 mi
2:30 am50 °FClear.5 mph82%30.18 "Hg10 mi
3:00 am52 °FClear.3 mph88%30.15 "Hg10 mi
3:30 am52 °FClear.2 mph88%30.15 "Hg10 mi
4:00 am48 °FClear.2 mph87%30.15 "Hg10 mi
4:30 am50 °FClear.3 mph94%30.12 "Hg10 mi
5:00 am48 °FClear.2 mph94%30.12 "Hg10 mi
5:30 am48 °FClear.3 mph94%30.12 "Hg10 mi
6:00 am46 °FClear.3 mph93%30.12 "HgN/A
6:30 am48 °FPassing clouds.3 mph100%30.12 "HgN/A
7:00 am50 °FSunny.3 mph94%30.12 "Hg10 mi
7:30 am52 °FSunny.5 mph100%30.12 "Hg10 mi
8:00 am55 °FSunny.9 mph100%30.09 "Hg10 mi
8:30 am59 °FSunny.8 mph88%30.09 "Hg10 mi
9:00 am63 °FSunny.8 mph77%30.09 "Hg10 mi
9:30 am66 °FSunny.10 mph64%30.09 "Hg10 mi
10:00 am68 °FPassing clouds.10 mph64%30.09 "HgN/A
10:30 am70 °FSunny.13 mph60%30.09 "Hg10 mi
11:00 am72 °FPassing clouds.12 mph57%30.09 "HgN/A
11:30 am72 °FClear.16 mph53%30.09 "HgN/A
12:00 pm73 °FClear.16 mph53%30.09 "HgN/A
12:30 pm73 °FClear.16 mph53%30.09 "HgN/A
1:00 pm75 °FClear.14 mph47%30.09 "HgN/A
1:30 pm75 °FClear.14 mph50%30.09 "HgN/A
2:00 pm75 °FClear.13 mph54%30.09 "HgN/A
2:30 pm77 °FClear.14 mph51%30.07 "HgN/A
3:00 pm77 °FPassing clouds.14 mph54%30.07 "HgN/A
3:30 pm79 °FClear.16 mph48%30.04 "HgN/A
4:00 pm79 °FPassing clouds.17 mph48%30.04 "HgN/A
4:30 pm77 °FClear.16 mph54%30.04 "HgN/A
5:00 pm79 °FClear.17 mph51%30.04 "HgN/A
5:30 pm79 °FClear.15 mph48%30.01 "HgN/A
6:00 pm77 °FClear.15 mph51%30.01 "HgN/A
6:30 pm77 °FClear.17 mph51%30.01 "HgN/A
7:00 pm75 °FSunny.14 mph50%30.01 "Hg10 mi
7:30 pm73 °FSunny.15 mph50%30.01 "Hg10 mi
8:00 pm73 °FSunny.13 mph53%29.98 "Hg10 mi
8:30 pm72 °FSunny.12 mph57%29.98 "Hg10 mi
9:00 pm72 °FSunny.10 mph57%29.98 "Hg10 mi
9:30 pm70 °FPassing clouds.12 mph57%29.98 "HgN/A
10:00 pm68 °FSunny.10 mph60%29.98 "Hg10 mi
10:30 pm66 °FClear.9 mph64%29.98 "Hg10 mi
11:00 pm66 °FClear.9 mph64%29.98 "Hg10 mi
11:30 pm64 °FClear.8 mph68%29.98 "Hg10 mi
Weather by CustomWeather, © 2022

See weather overview